Location: Monfort
(47.1967°N, 0.2115°W)
Time: 11:12:52
(UTC+00:00)

Cosmos 1486 Rocket - Pass Details

Date: 24 October 2020
Orbit: 758 x 784 km, 74.1° (Epoch: 27 November)

Event Time Altitude Azimuth Distance (km) Brightness Sun altitude
Rises 18:22:56 0° 341° (NNW) 3,284 7.5 -15.3°
Reaches altitude 10° 18:25:26 10° 347° (NNW) 2,352 6.7 -15.7°
Maximum altitude 18:30:36 48° 62° (ENE) 1,022 4.3 -16.6°
Enters shadow 18:33:48 22° 127° (SE) 1,661 5.3 -17.1°
